This demonstration page uses our WeatherBlox Daily Observations layout. Learn more.

Left ArrowRight Arrow

Hourly Observations for November 10, 2018

Temp ( °F °C ) Dew Point ( °F °C ) Humidity (%) Winds ( mph kmh ) Pressure ( in mb ) Visibility ( mi km ) Precip ( " mm )
12:53 am 00:53 Mostly Cloudy 42 5.6 31 -0.6 65 65 ESE 9 15 30.35 1028 10 16 0.00 0.00
1:53 am 01:53 Cloudy 43 6.1 31 -0.6 63 63 ESE 9 15 30.33 1027 10 16 0.00 0.00
2:53 am 02:53 Cloudy 44 6.7 31 -0.6 60 60 ESE 9 15 30.30 1026 10 16 0.00 0.00
3:53 am 03:53 Cloudy 44 6.7 31 -0.6 60 60 ESE 9 15 30.29 1026 10 16 0.00 0.00
4:53 am 04:53 Cloudy 44 6.7 31 -0.6 60 60 ESE 10 17 30.27 1025 10 16 0.00 0.00
5:53 am 05:53 Cloudy 44 6.7 31 -0.6 60 60 ESE 10 17 30.27 1025 10 16 0.00 0.00
6:53 am 06:53 Cloudy 44 6.7 31 -0.6 60 60 SE 12 19 30.27 1025 10 16 0.00 0.00
7:53 am 07:53 Cloudy 44 6.7 32 0 63 63 SE 10 17 30.27 1025 10 16 0.00 0.00
8:53 am 08:53 Cloudy 45 7.2 33 0.6 63 63 SE 15 24 30.26 1025 10 16 0.00 0.00
9:53 am 09:53 Cloudy 47 8.3 34 1.1 61 61 SE 15 24 30.26 1025 10 16 0.00 0.00
10:53 am 10:53 Cloudy 48 8.9 33 0.6 56 56 SSE 17 28 30.24 1024 10 16 0.00 0.00
11:53 am 11:53 Cloudy 49 9.4 33 0.6 55 55 SSE 15 24 30.21 1023 10 16 0.00 0.00
12:53 pm 12:53 Cloudy 50 10 32 0 50 50 SE 18 30 30.16 1021 10 16 0.00 0.00
1:53 pm 13:53 Partly Cloudy 53 11.7 31 -0.6 43 43 SSE 17 28 30.11 1020 10 16 0.00 0.00
2:53 pm 14:53 Mostly Sunny 57 13.9 33 0.6 41 41 SSE 15 24 30.07 1018 10 16 0.00 0.00
3:53 pm 15:53 Partly Cloudy 56 13.3 31 -0.6 39 39 SSE 15 24 30.04 1017 10 16 0.00 0.00
4:53 pm 16:53 Cloudy 55 12.8 30 -1.1 38 38 SE 9 15 30.02 1017 10 16 0.00 0.00
5:53 pm 17:53 Sunny 53 11.7 31 -0.6 43 43 SE 14 22 30.00 1016 10 16 0.00 0.00
6:53 pm 18:53 Clear 50 10 31 -0.6 48 48 SE 12 19 30.01 1016 10 16 0.00 0.00
7:53 pm 19:53 Clear 48 8.9 31 -0.6 52 52 SE 12 19 30.01 1016 10 16 0.00 0.00
8:53 pm 20:53 Clear 46 7.8 31 -0.6 56 56 SE 13 20 30.00 1016 10 16 0.00 0.00
9:53 pm 21:53 Clear 45 7.2 31 -0.6 58 58 SE 13 20 30.00 1016 10 16 0.00 0.00
10:53 pm 22:53 Clear 43 6.1 31 -0.6 63 63 SSE 12 19 29.99 1016 10 16 0.00 0.00
11:53 pm 23:53 Clear 42 5.6 32 0 68 68 SE 9 15 29.99 1016 10 16 0.00 0.00

Powered by AerisWeather